Preview of NWS' New Version of Forecast
This preview is not operational and should not be used for support decisions.

Regional Weather Roundup (RWR)

Issued by National Weather Service (NWS)

                            
000
ASUS46 KPQR 211410
RWROR 

OREGON REGIONAL WEATHER ROUNDUP
NATIONAL WEATHER SERVICE PORTLAND OR
700 AM PDT WED AUG 21 2019

NOTE: "FAIR" INDICATES FEW OR NO CLOUDS BELOW 12,000 FEET WITH
NO SIGNIFICANT WEATHER AND/OR OBSTRUCTIONS TO VISIBILITY.

ORZ001>013-211500-
NORTHWEST OREGON

  
CITY           SKY/WX    TMP DP  RH WIND       PRES   REMARKS
ASTORIA        CLOUDY    61  59  93 E3        29.97S                  
TILLAMOOK      CLOUDY    59  54  82 CALM      30.01S                  
NEWPORT        CLOUDY    61  55  82 CALM      30.04S                  
FLORENCE       CLOUDY    59  54  82 CALM      30.03R                  
PORTLAND       MOCLDY    62  55  77 E7        30.03R                  
VANCOUVER WA   CLOUDY    63  54  72 SE5       30.02S                  
SCAPPOOSE      CLOUDY    57  54  89 W3        30.02R                  
HILLSBORO      CLOUDY    56  52  86 CALM      30.02S                  
AURORA         CLOUDY    59  52  77 CALM      30.04R                  
MCMINNVILLE    MOCLDY    56  51  84 CALM      30.02F                  
SALEM          CLOUDY    60  52  74 S8        30.02S                  
CORVALLIS      CLOUDY    57  52  83 CALM      30.05R                  
EUGENE         MOCLDY    57  51  80 SW5       30.05S                  
CRESWELL       CLOUDY    54  52  94 CALM      30.05R                  
$$

ORZ021-028-211500-
SOUTHWEST OREGON

  
CITY           SKY/WX    TMP DP  RH WIND       PRES   REMARKS
NORTH BEND     CLOUDY    61  55  81 SE7       30.04R                  
BROOKINGS      LGT RAIN  59  55  87 CALM      30.05R                  
ROSEBURG       MOCLDY    59  53  80 CALM      30.06R                  
SEXTON SUMMIT  MOCLDY    60  37  42 S9        30.13S                  
GRANTS PASS    CLOUDY    57  48  72 CALM      30.10S                  
MEDFORD        MOCLDY    60  47  61 NE5       30.07R                  
$$

ORZ014>016-041-211500-
COLUMBIA GORGE

  
CITY           SKY/WX    TMP DP  RH WIND       PRES   REMARKS
TROUTDALE      MOCLDY    58  53  84 CALM      30.03R                  
HOOD RIVER     CLEAR     55  52  88 S5        30.01R                  
THE DALLES     CLEAR     65  52  62 CALM      29.97R                  
$$

ORZ029>031-041-044-049-050-061>064-502-503-505>511-211500-
EASTERN OREGON

  
CITY           SKY/WX    TMP DP  RH WIND       PRES   REMARKS
MADRAS         CLEAR     54  50  87 SE6       30.07R                  
REDMOND        PTCLDY    56  49  77 CALM      30.07R                  
BEND           PTCLDY    61  52  72 SW7       30.08R                  
PRINEVILLE     CLEAR     52  48  87 CALM      30.08R                  
KLAMATH FALLS  MOCLDY    50  46  86 NW3       30.15R                  
LAKEVIEW       MOCLDY    45  37  73 N3        30.18R                  
HERMISTON      CLEAR     71  48  43 CALM      29.94R                  
PENDLETON      CLEAR     68  47  46 S6        29.98R                  
JOHN DAY       PTCLDY    61  47  60 E3        30.09R                  
MEACHAM        PTCLDY    49  43  80 CALM      30.09R                  
LA GRANDE      PTCLDY    65  49  56 NW9       30.03R                  
BAKER CITY     MOCLDY    61  48  62 SW5       30.05R                  
BURNS          CLEAR     53  37  54 CALM      30.10R                  
ROME             N/A     59  24  26 SE5       30.05                   
ONTARIO        CLEAR     69  47  45 W9        29.94R                  
$$